Total_Precipitation_Accumulation
0.00 0.00 0.00 0.00 0.00 0.00 0.00 0.00 0.00 0.00 0.00 0.00 0.00 0.00 0.00 0.00 0.00 0.00 0.00 0.00 0.00 0.00 0.00 0.00 0.00 0.00 0.00 0.01 0.01 0.03 0.04 0.01 0.04 0.06 0.08 0.07 0.08 0.21 0.15 0.25 0.39 0.38
0.00 0.00 0.01 0.00 0.00 0.00 0.00 0.00 0.00 0.00 0.00 0.00 0.00 0.00 0.00 0.00 0.00 0.00 0.00 0.00 0.00 0.00 0.00 0.00 0.00 0.00 0.00 0.01 0.01 0.01 0.01 0.07 0.06 0.02 0.06 0.09 0.13 0.11 0.18 0.21 0.22 0.29
0.00 0.00 0.00 0.00 0.00 0.00 0.00 0.00 0.00 0.00 0.00 0.00 0.00 0.00 0.00 0.00 0.01 0.01 0.01 0.01 0.01 0.01 0.01 0.00 0.00 0.00 0.00 0.00 0.01 0.01 0.01 0.01 0.05 0.05 0.09 0.06 0.16 0.11 0.11 0.15 0.15 0.13
0.00 0.00 0.00 0.00 0.00 0.00 0.00 0.00 0.00 0.00 0.00 0.00 0.00 0.00 0.00 0.00 0.00 0.00 0.00 0.01 0.01 0.01 0.00 0.01 0.00 0.00 0.00 0.00 0.00 0.01 0.02 0.01 0.01 0.03 0.10 0.09 0.04 0.06 0.10 0.09 0.11 0.15
0.00 0.00 0.00 0.00 0.00 0.00 0.00 0.00 0.00 0.00 0.00 0.00 0.00 0.00 0.01 0.00 0.00 0.01 0.01 0.01 0.01 0.01 0.00 0.00 0.00 0.00 0.00 0.00 0.01 0.01 0.01 0.01 0.01 0.01 0.02 0.08 0.14 0.06 0.04 0.10 0.13 0.10
0.01 0.01 0.00 0.00 0.00 0.00 0.00 0.00 0.00 0.00 0.00 0.00 0.00 0.00 0.00 0.00 0.01 0.01 0.00 0.01 0.00 0.00 0.01 0.01 0.00 0.00 0.00 0.00 0.00 0.01 0.01 0.01 0.02 0.01 0.01 0.02 0.09 0.16 0.12 0.06 0.11 0.09
0.00 0.02 0.02 0.00 0.00 0.00 0.00 0.01 0.00 0.00 0.01 0.00 0.00 0.00 0.00 0.00 0.00 0.00 0.00 0.00 0.00 0.00 0.00 0.00 0.00 0.00 0.00 0.00 0.01 0.01 0.01 0.01 0.01 0.01 0.01 0.01 0.01 0.07 0.17 0.11 0.08 0.05
0.03 0.03 0.04 0.12 0.01 0.00 0.01 0.00 0.00 0.00 0.00 0.00 0.00 0.00 0.00 0.00 0.00 0.00 0.00 0.00 0.00 0.00 0.00 0.00 0.00 0.00 0.00 0.00 0.00 0.01 0.01 0.01 0.01 0.01 0.00 0.01 0.01 0.02 0.03 0.13 0.11 0.08
0.35 0.39 0.09 0.05 0.02 0.01 0.01 0.01 0.02 0.01 0.02 0.02 0.01 0.01 0.00 0.00 0.00 0.00 0.00 0.00 0.00 0.00 0.00 0.00 0.01 0.01 0.01 0.01 0.01 0.01 0.01 0.01 0.00 0.00 0.01 0.01 0.01 0.01 0.01 0.04 0.12 0.12
0.15 0.12 0.20 0.29 0.25 0.24 0.12 0.10 0.07 0.12 0.14 0.05 0.01 0.01 0.01 0.04 0.01 0.01 0.00 0.00 0.00 0.00 0.01 0.00 0.00 0.00 0.01 0.01 0.01 0.01 0.01 0.01 0.01 0.00 0.00 0.00 0.00 0.01 0.02 0.01 0.02 0.06
0.37 0.28 0.16 0.16 0.26 0.37 0.40 0.28 0.23 0.28 0.40 0.34 0.31 0.25 0.15 0.13 0.09 0.04 0.02 0.02 0.01 0.01 0.01 0.01 0.00 0.00 0.00 0.01 0.01 0.02 0.02 0.02 0.01 0.02 0.01 0.00 0.01 0.01 0.01 0.02 0.02 0.03
0.15 0.16 0.29 0.38 0.27 0.25 0.17 0.09 0.12 0.19 0.24 0.33 0.36 0.40 0.46 0.35 0.24 0.21 0.07 0.05 0.04 0.09 0.03 0.05 0.07 0.05 0.01 0.04 0.06 0.05 0.05 0.06 0.08 0.02 0.02 0.01 0.02 0.01 0.01 0.01 0.01 0.02
0.23 0.45 0.35 0.16 0.10 0.09 0.05 0.12 0.09 0.08 0.08 0.45 0.65 0.60 0.46 0.45 0.47 0.16 0.17 0.29 0.58 0.38 0.13 0.13 0.12 0.10 0.17 0.28 0.10 0.09 0.03 0.13 0.14 0.10 0.09 0.06 0.00 0.01 0.02 0.04 0.07 0.04
0.24 0.36 0.19 0.42 0.30 0.38 0.24 0.21 0.35 0.57 0.73 0.94 0.84 0.49 0.49 0.46 0.15 0.16 0.54 0.63 0.55 0.20 0.10 0.05 0.09 0.08 0.13 0.31 0.21 0.19 0.14 0.14 0.23 0.36 0.30 0.03 0.04 0.02 0.09 0.03 0.02 0.03
0.12 0.24 0.41 0.19 0.42 0.40 0.25 0.44 0.84 0.64 0.46 0.48 0.40 0.33 0.20 0.51 0.58 0.73 0.64 0.21 0.08 0.13 0.11 0.18 0.11 0.37 0.35 0.07 0.42 0.07 0.05 0.04 0.02 0.01 0.01 0.01 0.01 0.01 0.01 0.03 0.02 0.02
0.33 0.29 0.54 0.65 0.23 0.34 0.25 0.42 0.35 0.49 0.59 0.37 0.42 0.29 0.14 0.13 0.47 0.86 0.37 0.18 0.13 0.17 0.18 0.16 0.29 0.37 0.05 0.03 0.03 0.05 0.17 0.09 0.03 0.01 0.03 0.01 0.01 0.01 0.02 0.01 0.01 0.01
0.59 0.53 0.28 0.34 0.11 0.36 0.28 0.42 0.46 0.28 0.22 0.17 0.18 0.12 0.20 0.24 0.28 0.40 0.46 0.58 0.32 0.16 0.28 0.24 0.23 0.21 0.36 0.28 0.07 0.01 0.06 0.07 0.05 0.02 0.01 0.01 0.01 0.00 0.01 0.00 0.01 0.02
0.39 0.42 0.28 0.33 0.26 0.19 0.25 0.17 0.14 0.12 0.11 0.12 0.12 0.23 0.12 0.10 0.21 0.19 0.17 0.23 0.22 0.17 0.18 0.18 0.16 0.03 0.00 0.08 0.21 0.02 0.14 0.28 0.13 0.17 0.06 0.06 0.02 0.01 0.02 0.02 0.02 0.10
0.40 0.31 0.28 0.26 0.14 0.15 0.06 0.53 0.52 0.23 0.23 0.11 0.07 0.09 0.05 0.09 0.05 0.03 0.03 0.03 0.03 0.02 0.03 0.01 0.00 0.00 0.00 0.00 0.00 0.01 0.02 0.04 0.08 0.19 0.19 0.30 0.04 0.06 0.01 0.05 0.01 0.01
0.11 0.20 0.16 0.18 0.31 0.30 0.31 0.24 0.15 0.14 0.12 0.05 0.04 0.06 0.05 0.04 0.04 0.03 0.04 0.08 0.04 0.06 0.04 0.01 0.01 0.01 0.00 0.00 0.00 0.00 0.02 0.02 0.04 0.04 0.04 0.05 0.05 0.13 0.04 0.02 0.01 0.00
0.09 0.05 0.17 0.34 0.48 0.51 0.45 0.19 0.11 0.10 0.12 0.09 0.06 0.11 0.09 0.04 0.07 0.04 0.04 0.05 0.04 0.08 0.04 0.03 0.01 0.00 0.00 0.00 0.00 0.00 0.00 0.01 0.04 0.09 0.07 0.08 0.04 0.03 0.15 0.02 0.04 0.02
0.32 0.24 0.10 0.26 0.23 0.14 0.20 0.21 0.12 0.04 0.22 0.13 0.28 0.13 0.14 0.20 0.25 0.15 0.15 0.17 0.10 0.12 0.08 0.08 0.05 0.02 0.01 0.00 0.00 0.00 0.00 0.02 0.02 0.06 0.06 0.05 0.05 0.18 0.03 0.05 0.02 0.05
0.08 0.25 0.27 0.11 0.08 0.04 0.04 0.01 0.02 0.01 0.02 0.02 0.02 0.01 0.02 0.01 0.03 0.03 0.02 0.04 0.02 0.01 0.03 0.02 0.02 0.01 0.02 0.00 0.00 0.00 0.01 0.02 0.04 0.07 0.06 0.06 0.02 0.02 0.03 0.02 0.04 0.01
0.22 0.11 0.23 0.12 0.11 0.06 0.03 0.04 0.02 0.05 0.04 0.02 0.02 0.02 0.03 0.04 0.05 0.03 0.02 0.02 0.03 0.03 0.02 0.02 0.02 0.03 0.02 0.01 0.00 0.00 0.01 0.04 0.07 0.06 0.06 0.07 0.05 0.03 0.02 0.02 0.03 0.01
0.06 0.17 0.19 0.42 0.36 0.21 0.09 0.08 0.04 0.07 0.06 0.03 0.04 0.05 0.06 0.07 0.07 0.10 0.02 0.06 0.02 0.02 0.02 0.04 0.04 0.03 0.02 0.01 0.01 0.00 0.06 0.07 0.05 0.09 0.10 0.06 0.05 0.05 0.08 0.09 0.03 0.05
0.16 0.14 0.19 0.12 0.22 0.08 0.21 0.38 0.43 0.26 0.21 0.19 0.12 0.12 0.09 0.06 0.05 0.03 0.02 0.01 0.01 0.02 0.03 0.04 0.04 0.04 0.03 0.02 0.01 0.02 0.07 0.06 0.03 0.09 0.08 0.07 0.07 0.05 0.08 0.09 0.07 0.07